Year,Month,Day,Hour,Minute,Value (Times are PST for temperature in C)
2009,04,27,00,00,6.10
2009,04,27,00,01,6.10
2009,04,27,00,02,6.10
2009,04,27,00,03,6.10
2009,04,27,00,04,6.10
2009,04,27,00,05,6.10
2009,04,27,00,06,6.00
2009,04,27,00,07,6.00
2009,04,27,00,08,6.00
2009,04,27,00,09,5.90
2009,04,27,00,10,5.90
2009,04,27,00,11,5.80
2009,04,27,00,12,5.80
2009,04,27,00,13,5.80
2009,04,27,00,14,5.70
2009,04,27,00,15,5.70
2009,04,27,00,16,5.70
2009,04,27,00,17,5.70
2009,04,27,00,18,5.70
2009,04,27,00,19,5.70
2009,04,27,00,20,5.60
2009,04,27,00,21,5.60
2009,04,27,00,22,5.50
2009,04,27,00,23,5.50
2009,04,27,00,24,5.40
2009,04,27,00,25,5.40
2009,04,27,00,26,5.40
2009,04,27,00,27,5.30
2009,04,27,00,28,5.30
2009,04,27,00,29,5.30
2009,04,27,00,30,5.30
2009,04,27,00,31,5.30
2009,04,27,00,32,5.30
2009,04,27,00,33,5.30
2009,04,27,00,34,5.30
2009,04,27,00,35,5.30
2009,04,27,00,36,5.30
2009,04,27,00,37,5.20
2009,04,27,00,38,5.20
2009,04,27,00,39,5.20
2009,04,27,00,40,5.20
2009,04,27,00,41,5.20
2009,04,27,00,42,5.20
2009,04,27,00,43,5.20
2009,04,27,00,44,5.20
2009,04,27,00,45,5.10
2009,04,27,00,46,5.10
2009,04,27,00,47,5.10
2009,04,27,00,48,5.10
2009,04,27,00,49,5.10
2009,04,27,00,50,5.10
2009,04,27,00,51,5.10
2009,04,27,00,52,5.10
2009,04,27,00,53,5.00
2009,04,27,00,54,4.90
2009,04,27,00,55,4.90
2009,04,27,00,56,5.00
2009,04,27,00,57,5.10
2009,04,27,00,58,5.10
2009,04,27,00,59,5.10
2009,04,27,01,00,5.10
2009,04,27,01,01,5.10
2009,04,27,01,02,5.10
2009,04,27,01,03,5.10
2009,04,27,01,04,5.10
2009,04,27,01,05,5.10
2009,04,27,01,06,5.10
2009,04,27,01,07,5.00
2009,04,27,01,08,4.90
2009,04,27,01,09,4.90
2009,04,27,01,10,4.90
2009,04,27,01,11,4.90
2009,04,27,01,12,4.90
2009,04,27,01,13,4.90
2009,04,27,01,14,4.90
2009,04,27,01,15,4.90
2009,04,27,01,16,4.90
2009,04,27,01,17,4.90
2009,04,27,01,18,5.00
2009,04,27,01,19,5.00
2009,04,27,01,20,4.90
2009,04,27,01,21,4.80
2009,04,27,01,22,4.80
2009,04,27,01,23,4.70
2009,04,27,01,24,4.70
2009,04,27,01,25,4.70
2009,04,27,01,26,4.70
2009,04,27,01,27,4.60
2009,04,27,01,28,4.60
2009,04,27,01,29,4.60
2009,04,27,01,30,4.60
2009,04,27,01,31,4.60
2009,04,27,01,32,4.60
2009,04,27,01,33,4.60
2009,04,27,01,34,4.60
2009,04,27,01,35,4.60
2009,04,27,01,36,4.60
2009,04,27,01,37,4.50
2009,04,27,01,38,4.50
2009,04,27,01,39,4.50
2009,04,27,01,40,4.50
2009,04,27,01,41,4.50
2009,04,27,01,42,4.50
2009,04,27,01,43,4.50
2009,04,27,01,44,4.50
2009,04,27,01,45,4.50
2009,04,27,01,46,4.50
2009,04,27,01,47,4.40
2009,04,27,01,48,4.40
2009,04,27,01,49,4.40
2009,04,27,01,50,4.40
2009,04,27,01,51,4.40
2009,04,27,01,52,4.40
2009,04,27,01,53,4.40
2009,04,27,01,54,4.30
2009,04,27,01,55,4.30
2009,04,27,01,56,4.30
2009,04,27,01,57,4.30
2009,04,27,01,58,4.20
2009,04,27,01,59,4.20
2009,04,27,02,00,4.20
2009,04,27,02,01,4.20
2009,04,27,02,02,4.20
2009,04,27,02,03,4.20
2009,04,27,02,04,4.20
2009,04,27,02,05,4.20
2009,04,27,02,06,4.10
2009,04,27,02,07,4.10
2009,04,27,02,08,4.10
2009,04,27,02,09,4.10
2009,04,27,02,10,4.00
2009,04,27,02,11,4.00
2009,04,27,02,12,4.00
2009,04,27,02,13,4.00
2009,04,27,02,14,3.90
2009,04,27,02,15,3.90
2009,04,27,02,16,3.90
2009,04,27,02,17,3.90
2009,04,27,02,18,3.80
2009,04,27,02,19,3.80
2009,04,27,02,20,3.80
2009,04,27,02,21,3.80
2009,04,27,02,22,3.80
2009,04,27,02,23,3.80
2009,04,27,02,24,3.80
2009,04,27,02,25,3.80
2009,04,27,02,26,3.80
2009,04,27,02,27,3.80
2009,04,27,02,28,3.80
2009,04,27,02,29,3.80
2009,04,27,02,30,3.80
2009,04,27,02,31,3.80
2009,04,27,02,32,3.70
2009,04,27,02,33,3.70
2009,04,27,02,34,3.70
2009,04,27,02,35,3.70
2009,04,27,02,36,3.70
2009,04,27,02,37,3.70
2009,04,27,02,38,3.70
2009,04,27,02,39,3.70
2009,04,27,02,40,3.70
2009,04,27,02,41,3.70
2009,04,27,02,42,3.70
2009,04,27,02,43,3.70
2009,04,27,02,44,3.80
2009,04,27,02,45,3.80
2009,04,27,02,46,3.80
2009,04,27,02,47,3.80
2009,04,27,02,48,3.80
2009,04,27,02,49,3.80
2009,04,27,02,50,3.80
2009,04,27,02,51,3.80
2009,04,27,02,52,3.80
2009,04,27,02,53,3.80
2009,04,27,02,54,3.80
2009,04,27,02,55,3.80
2009,04,27,02,56,3.80
2009,04,27,02,57,3.80
2009,04,27,02,58,3.80
2009,04,27,02,59,3.90
2009,04,27,03,00,4.00
2009,04,27,03,01,4.00
2009,04,27,03,02,4.00
2009,04,27,03,03,4.00
2009,04,27,03,04,3.90
2009,04,27,03,05,3.90
2009,04,27,03,06,3.90
2009,04,27,03,07,3.90
2009,04,27,03,08,3.80
2009,04,27,03,09,3.80
2009,04,27,03,10,3.80
2009,04,27,03,11,3.80
2009,04,27,03,12,3.80
2009,04,27,03,13,3.80
2009,04,27,03,14,3.80
2009,04,27,03,15,3.80
2009,04,27,03,16,3.80
2009,04,27,03,17,3.80
2009,04,27,03,18,3.80
2009,04,27,03,19,3.80
2009,04,27,03,20,3.80
2009,04,27,03,21,3.80
2009,04,27,03,22,3.80
2009,04,27,03,23,3.80
2009,04,27,03,24,3.80
2009,04,27,03,25,3.80
2009,04,27,03,26,3.80
2009,04,27,03,27,3.80
2009,04,27,03,28,3.80
2009,04,27,03,29,3.80
2009,04,27,03,30,3.80
2009,04,27,03,31,3.80
2009,04,27,03,32,3.80
2009,04,27,03,33,3.80
2009,04,27,03,34,3.80
2009,04,27,03,35,3.80
2009,04,27,03,36,3.80
2009,04,27,03,37,3.80
2009,04,27,03,38,3.90
2009,04,27,03,39,3.90
2009,04,27,03,40,3.90
2009,04,27,03,41,3.90
2009,04,27,03,42,3.90
2009,04,27,03,43,3.90
2009,04,27,03,44,3.90
2009,04,27,03,45,3.90
2009,04,27,03,46,3.90
2009,04,27,03,47,3.90
2009,04,27,03,48,3.90
2009,04,27,03,49,3.90
2009,04,27,03,50,3.90
2009,04,27,03,51,3.90
2009,04,27,03,52,3.90
2009,04,27,03,53,3.90
2009,04,27,03,54,3.90
2009,04,27,03,55,3.90
2009,04,27,03,56,3.90
2009,04,27,03,57,3.90
2009,04,27,03,58,3.90
2009,04,27,03,59,3.90
2009,04,27,04,00,4.00
2009,04,27,04,01,4.00
2009,04,27,04,02,4.00
2009,04,27,04,03,4.00
2009,04,27,04,04,4.10
2009,04,27,04,05,4.10
2009,04,27,04,06,4.10
2009,04,27,04,07,4.20
2009,04,27,04,08,4.20
2009,04,27,04,09,4.20
2009,04,27,04,10,4.20
2009,04,27,04,11,4.20
2009,04,27,04,12,4.20
2009,04,27,04,13,4.20
2009,04,27,04,14,4.20
2009,04,27,04,15,4.20
2009,04,27,04,16,4.20
2009,04,27,04,17,4.20
2009,04,27,04,18,4.20
2009,04,27,04,19,4.20
2009,04,27,04,20,4.20
2009,04,27,04,21,4.20
2009,04,27,04,22,4.20
2009,04,27,04,23,4.20
2009,04,27,04,24,4.20
2009,04,27,04,25,4.20
2009,04,27,04,26,4.20
2009,04,27,04,27,4.20
2009,04,27,04,28,4.10
2009,04,27,04,29,4.10
2009,04,27,04,30,4.10
2009,04,27,04,31,4.00
2009,04,27,04,32,4.00
2009,04,27,04,33,4.00
2009,04,27,04,34,4.00
2009,04,27,04,35,4.00
2009,04,27,04,36,4.10
2009,04,27,04,37,4.10
2009,04,27,04,38,4.10
2009,04,27,04,39,4.10
2009,04,27,04,40,4.10
2009,04,27,04,41,4.10
2009,04,27,04,42,4.10
2009,04,27,04,43,4.10
2009,04,27,04,44,4.10
2009,04,27,04,45,4.00
2009,04,27,04,46,4.00
2009,04,27,04,47,4.00
2009,04,27,04,48,4.00
2009,04,27,04,49,4.00
2009,04,27,04,50,4.00
2009,04,27,04,51,4.00
2009,04,27,04,52,3.90
2009,04,27,04,53,3.90
2009,04,27,04,54,3.90
2009,04,27,04,55,3.90
2009,04,27,04,56,3.80
2009,04,27,04,57,3.80
2009,04,27,04,58,3.80
2009,04,27,04,59,3.80
2009,04,27,05,00,3.80
2009,04,27,05,01,3.80
2009,04,27,05,02,3.80
2009,04,27,05,03,3.80
2009,04,27,05,04,3.80
2009,04,27,05,05,3.90
2009,04,27,05,06,3.90
2009,04,27,05,07,4.00
2009,04,27,05,08,4.00
2009,04,27,05,09,4.10
2009,04,27,05,10,4.10
2009,04,27,05,11,4.20
2009,04,27,05,12,4.20
2009,04,27,05,13,4.20
2009,04,27,05,14,4.20
2009,04,27,05,15,4.20
2009,04,27,05,16,4.20
2009,04,27,05,17,4.20
2009,04,27,05,18,4.20
2009,04,27,05,19,4.20
2009,04,27,05,20,4.20
2009,04,27,05,21,4.20
2009,04,27,05,22,4.20
2009,04,27,05,23,4.20
2009,04,27,05,24,4.30
2009,04,27,05,25,4.40
2009,04,27,05,26,4.40
2009,04,27,05,27,4.50
2009,04,27,05,28,4.60
2009,04,27,05,29,4.70
2009,04,27,05,30,4.80
2009,04,27,05,31,4.80
2009,04,27,05,32,4.90
2009,04,27,05,33,4.90
2009,04,27,05,34,4.90
2009,04,27,05,35,4.90
2009,04,27,05,36,4.90
2009,04,27,05,37,4.90
2009,04,27,05,38,4.80
2009,04,27,05,39,4.70
2009,04,27,05,40,4.70
2009,04,27,05,41,4.60
2009,04,27,05,42,4.60
2009,04,27,05,43,4.60
2009,04,27,05,44,4.50
2009,04,27,05,45,4.50
2009,04,27,05,46,4.50
2009,04,27,05,47,4.50
2009,04,27,05,48,4.40
2009,04,27,05,49,4.40
2009,04,27,05,50,4.40
2009,04,27,05,51,4.40
2009,04,27,05,52,4.40
2009,04,27,05,53,4.40
2009,04,27,05,54,4.50
2009,04,27,05,55,4.50
2009,04,27,05,56,4.60
2009,04,27,05,57,4.60
2009,04,27,05,58,4.60
2009,04,27,05,59,4.60
2009,04,27,06,00,4.60
2009,04,27,06,01,4.60
2009,04,27,06,02,4.60
2009,04,27,06,03,4.60
2009,04,27,06,04,4.60
2009,04,27,06,05,4.60
2009,04,27,06,06,4.60
2009,04,27,06,07,4.60
2009,04,27,06,08,4.60
2009,04,27,06,09,4.60
2009,04,27,06,10,4.60
2009,04,27,06,11,4.60
2009,04,27,06,12,4.60
2009,04,27,06,13,4.60
2009,04,27,06,14,4.60
2009,04,27,06,15,4.60
2009,04,27,06,16,4.70
2009,04,27,06,17,4.70
2009,04,27,06,18,4.70
2009,04,27,06,19,4.70
2009,04,27,06,20,4.70
2009,04,27,06,21,4.70
2009,04,27,06,22,4.70
2009,04,27,06,23,4.70
2009,04,27,06,24,4.70
2009,04,27,06,25,4.70
2009,04,27,06,26,4.70
2009,04,27,06,27,4.70
2009,04,27,06,28,4.80
2009,04,27,06,29,4.80
2009,04,27,06,30,4.80
2009,04,27,06,31,4.80
2009,04,27,06,32,4.80
2009,04,27,06,33,4.80
2009,04,27,06,34,4.80
2009,04,27,06,35,4.80
2009,04,27,06,36,4.80
2009,04,27,06,37,4.80
2009,04,27,06,38,4.90
2009,04,27,06,39,4.90
2009,04,27,06,40,4.90
2009,04,27,06,41,4.90
2009,04,27,06,42,4.90
2009,04,27,06,43,4.90
2009,04,27,06,44,4.90
2009,04,27,06,45,5.00
2009,04,27,06,46,5.10
2009,04,27,06,47,5.10
2009,04,27,06,48,5.10
2009,04,27,06,49,5.10
2009,04,27,06,50,5.10
2009,04,27,06,51,5.20
2009,04,27,06,52,5.20
2009,04,27,06,53,5.30
2009,04,27,06,54,5.30
2009,04,27,06,55,5.30
2009,04,27,06,56,5.30
2009,04,27,06,57,5.30
2009,04,27,06,58,5.30
2009,04,27,06,59,5.40
2009,04,27,07,00,5.40
2009,04,27,07,01,5.50
2009,04,27,07,02,5.50
2009,04,27,07,03,5.60
2009,04,27,07,04,5.70
2009,04,27,07,05,5.80
2009,04,27,07,06,5.90
2009,04,27,07,07,6.00
2009,04,27,07,08,6.10
2009,04,27,07,09,6.10
2009,04,27,07,10,6.20
2009,04,27,07,11,6.20
2009,04,27,07,12,6.20
2009,04,27,07,13,6.30
2009,04,27,07,14,6.40
2009,04,27,07,15,6.50
2009,04,27,07,16,6.70
2009,04,27,07,17,6.80
2009,04,27,07,18,6.90
2009,04,27,07,19,7.00
2009,04,27,07,20,7.10
2009,04,27,07,21,7.30
2009,04,27,07,22,7.40
2009,04,27,07,23,7.50
2009,04,27,07,24,7.60
2009,04,27,07,25,7.70
2009,04,27,07,26,7.80
2009,04,27,07,27,7.90
2009,04,27,07,28,8.00
2009,04,27,07,29,8.10
2009,04,27,07,30,8.20
2009,04,27,07,31,8.30
2009,04,27,07,32,8.50
2009,04,27,07,33,8.50
2009,04,27,07,34,8.70
2009,04,27,07,35,8.70
2009,04,27,07,36,8.70
2009,04,27,07,37,8.80
2009,04,27,07,38,8.90
2009,04,27,07,39,8.90
2009,04,27,07,40,9.00
2009,04,27,07,41,9.00
2009,04,27,07,42,9.10
2009,04,27,07,43,9.10
2009,04,27,07,44,9.20
2009,04,27,07,45,9.20
2009,04,27,07,46,9.20
2009,04,27,07,47,9.30
2009,04,27,07,48,9.30
2009,04,27,07,49,9.40
2009,04,27,07,50,9.40
2009,04,27,07,51,9.40
2009,04,27,07,52,9.50
2009,04,27,07,53,9.50
2009,04,27,07,54,9.60
2009,04,27,07,55,9.70
2009,04,27,07,56,9.80
2009,04,27,07,57,9.90
2009,04,27,07,58,9.90
2009,04,27,07,59,9.90
2009,04,27,08,00,10.10
2009,04,27,08,01,10.10
2009,04,27,08,02,10.10
2009,04,27,08,03,10.10
2009,04,27,08,04,10.20
2009,04,27,08,05,10.20
2009,04,27,08,06,10.30
2009,04,27,08,07,10.30
2009,04,27,08,08,10.30
2009,04,27,08,09,10.40
2009,04,27,08,10,10.40
2009,04,27,08,11,10.50
2009,04,27,08,12,10.60
2009,04,27,08,13,10.60
2009,04,27,08,14,10.70
2009,04,27,08,15,10.80
2009,04,27,08,16,10.80
2009,04,27,08,17,10.90
2009,04,27,08,18,10.90
2009,04,27,08,19,11.00
2009,04,27,08,20,11.10
2009,04,27,08,21,11.10
2009,04,27,08,22,11.20
2009,04,27,08,23,11.30
2009,04,27,08,24,11.30
2009,04,27,08,25,11.40
2009,04,27,08,26,11.40
2009,04,27,08,27,11.50
2009,04,27,08,28,11.60
2009,04,27,08,29,11.60
2009,04,27,08,30,11.60
2009,04,27,08,31,11.70
2009,04,27,08,32,11.80
2009,04,27,08,33,11.80
2009,04,27,08,34,11.80
2009,04,27,08,35,11.80
2009,04,27,08,36,11.80
2009,04,27,08,37,11.70
2009,04,27,08,38,11.70
2009,04,27,08,39,11.80
2009,04,27,08,40,11.80
2009,04,27,08,41,11.80
2009,04,27,08,42,11.80
2009,04,27,08,43,11.80
2009,04,27,08,44,11.90
2009,04,27,08,45,11.90
2009,04,27,08,46,12.00
2009,04,27,08,47,12.10
2009,04,27,08,48,12.00
2009,04,27,08,49,12.00
2009,04,27,08,50,11.90
2009,04,27,08,51,11.90
2009,04,27,08,52,11.80
2009,04,27,08,53,11.80
2009,04,27,08,54,11.90
2009,04,27,08,55,11.90
2009,04,27,08,56,11.90
2009,04,27,08,57,11.90
2009,04,27,08,58,11.90
2009,04,27,08,59,12.00
2009,04,27,09,00,12.00
2009,04,27,09,01,12.00
2009,04,27,09,02,12.10
2009,04,27,09,03,12.10
2009,04,27,09,04,12.20
2009,04,27,09,05,12.20
2009,04,27,09,06,12.20
2009,04,27,09,07,12.30
2009,04,27,09,08,12.30
2009,04,27,09,09,12.30
2009,04,27,09,10,12.30
2009,04,27,09,11,12.30
2009,04,27,09,12,12.40
2009,04,27,09,13,12.40
2009,04,27,09,14,12.50
2009,04,27,09,15,12.50
2009,04,27,09,16,12.60
2009,04,27,09,17,12.60
2009,04,27,09,18,12.70
2009,04,27,09,19,12.60
2009,04,27,09,20,12.50
2009,04,27,09,21,12.40
2009,04,27,09,22,12.40
2009,04,27,09,23,12.40
2009,04,27,09,24,12.40
2009,04,27,09,25,12.50
2009,04,27,09,26,12.60
2009,04,27,09,27,12.50
2009,04,27,09,28,12.50
2009,04,27,09,29,12.50
2009,04,27,09,30,12.60
2009,04,27,09,31,12.60
2009,04,27,09,32,12.70
2009,04,27,09,33,12.70
2009,04,27,09,34,12.80
2009,04,27,09,35,12.80
2009,04,27,09,36,12.80
2009,04,27,09,37,12.80
2009,04,27,09,38,12.80
2009,04,27,09,39,12.80
2009,04,27,09,40,12.80
2009,04,27,09,41,12.80
2009,04,27,09,42,12.90
2009,04,27,09,43,12.90
2009,04,27,09,44,13.00
2009,04,27,09,45,13.00
2009,04,27,09,46,13.00
2009,04,27,09,47,13.00
2009,04,27,09,48,13.00
2009,04,27,09,49,12.90
2009,04,27,09,50,12.90
2009,04,27,09,51,12.90
2009,04,27,09,52,13.00
2009,04,27,09,53,13.00
2009,04,27,09,54,13.10
2009,04,27,09,55,13.20
2009,04,27,09,56,13.30
2009,04,27,09,57,13.30
2009,04,27,09,58,13.30
2009,04,27,09,59,13.30
2009,04,27,10,00,13.30
2009,04,27,10,01,13.30
2009,04,27,10,02,13.40
2009,04,27,10,03,13.50
2009,04,27,10,04,13.50
2009,04,27,10,05,13.50
2009,04,27,10,06,13.60
2009,04,27,10,07,13.50
2009,04,27,10,08,13.40
2009,04,27,10,09,13.50
2009,04,27,10,10,13.60
2009,04,27,10,11,13.70
2009,04,27,10,12,13.70
2009,04,27,10,13,13.70
2009,04,27,10,14,13.70
2009,04,27,10,15,13.80
2009,04,27,10,16,13.80
2009,04,27,10,17,13.80
2009,04,27,10,18,13.90
2009,04,27,10,19,13.80
2009,04,27,10,20,13.70
2009,04,27,10,21,13.70
2009,04,27,10,22,13.60
2009,04,27,10,23,13.60
2009,04,27,10,24,13.70
2009,04,27,10,25,13.70
2009,04,27,10,26,13.70
2009,04,27,10,27,13.80
2009,04,27,10,28,13.80
2009,04,27,10,29,13.90
2009,04,27,10,30,13.90
2009,04,27,10,31,13.80
2009,04,27,10,32,13.70
2009,04,27,10,33,13.80
2009,04,27,10,34,13.80
2009,04,27,10,35,13.80
2009,04,27,10,36,13.90
2009,04,27,10,37,13.80
2009,04,27,10,38,13.80
2009,04,27,10,39,13.80
2009,04,27,10,40,13.90
2009,04,27,10,41,13.90
2009,04,27,10,42,14.00
2009,04,27,10,43,14.00
2009,04,27,10,44,14.10
2009,04,27,10,45,14.20
2009,04,27,10,46,14.20
2009,04,27,10,47,14.20
2009,04,27,10,48,14.40
2009,04,27,10,49,14.40
2009,04,27,10,50,14.40
2009,04,27,10,51,14.30
2009,04,27,10,52,14.20
2009,04,27,10,53,14.30
2009,04,27,10,54,14.40
2009,04,27,10,55,14.40
2009,04,27,10,56,14.40
2009,04,27,10,57,14.50
2009,04,27,10,58,14.50
2009,04,27,10,59,14.50
2009,04,27,11,00,14.40
2009,04,27,11,01,14.20
2009,04,27,11,02,14.10
2009,04,27,11,03,14.00
2009,04,27,11,04,14.00
2009,04,27,11,05,14.10
2009,04,27,11,06,14.20
2009,04,27,11,07,14.20
2009,04,27,11,08,14.20
2009,04,27,11,09,14.00
2009,04,27,11,10,13.90
2009,04,27,11,11,13.90
2009,04,27,11,12,14.10
2009,04,27,11,13,14.30
2009,04,27,11,14,14.40
2009,04,27,11,15,14.50
2009,04,27,11,16,14.60
2009,04,27,11,17,14.50
2009,04,27,11,18,14.30
2009,04,27,11,19,14.20
2009,04,27,11,20,14.20
2009,04,27,11,21,14.40
2009,04,27,11,22,14.40
2009,04,27,11,23,14.50
2009,04,27,11,24,14.40
2009,04,27,11,25,14.40
2009,04,27,11,26,14.40
2009,04,27,11,27,14.30
2009,04,27,11,28,14.50
2009,04,27,11,29,14.50
2009,04,27,11,30,14.50
2009,04,27,11,31,14.60
2009,04,27,11,32,14.80
2009,04,27,11,33,14.80
2009,04,27,11,34,14.80
2009,04,27,11,35,14.70
2009,04,27,11,36,14.70
2009,04,27,11,37,14.70
2009,04,27,11,38,14.80
2009,04,27,11,39,14.80
2009,04,27,11,40,14.90
2009,04,27,11,41,14.90
2009,04,27,11,42,15.00
2009,04,27,11,43,15.10
2009,04,27,11,44,15.20
2009,04,27,11,45,15.10
2009,04,27,11,46,14.90
2009,04,27,11,47,14.80
2009,04,27,11,48,14.80
2009,04,27,11,49,14.80
2009,04,27,11,50,14.70
2009,04,27,11,51,14.70
2009,04,27,11,52,14.80
2009,04,27,11,53,14.90
2009,04,27,11,54,15.00
2009,04,27,11,55,15.00
2009,04,27,11,56,15.10
2009,04,27,11,57,15.30
2009,04,27,11,58,15.40
2009,04,27,11,59,15.40
2009,04,27,12,00,15.30
2009,04,27,12,01,15.30
2009,04,27,12,02,15.20
2009,04,27,12,03,15.00
2009,04,27,12,04,14.90
2009,04,27,12,05,14.80
2009,04,27,12,06,14.80
2009,04,27,12,07,14.90
2009,04,27,12,08,15.00
2009,04,27,12,09,15.20
2009,04,27,12,10,15.30
2009,04,27,12,11,15.20
2009,04,27,12,12,15.00
2009,04,27,12,13,14.90
2009,04,27,12,14,14.90
2009,04,27,12,15,14.90
2009,04,27,12,16,15.00
2009,04,27,12,17,15.10
2009,04,27,12,18,15.10
2009,04,27,12,19,15.10
2009,04,27,12,20,15.10
2009,04,27,12,21,15.20
2009,04,27,12,22,15.30
2009,04,27,12,23,15.40
2009,04,27,12,24,15.50
2009,04,27,12,25,15.50
2009,04,27,12,26,15.40
2009,04,27,12,27,15.50
2009,04,27,12,28,15.60
2009,04,27,12,29,15.60
2009,04,27,12,30,15.40
2009,04,27,12,31,15.40
2009,04,27,12,32,15.50
2009,04,27,12,33,15.60
2009,04,27,12,34,15.70
2009,04,27,12,35,15.70
2009,04,27,12,36,15.70
2009,04,27,12,37,15.60
2009,04,27,12,38,15.60
2009,04,27,12,39,15.50
2009,04,27,12,40,15.50
2009,04,27,12,41,15.50
2009,04,27,12,42,15.60
2009,04,27,12,43,15.70
2009,04,27,12,44,15.60
2009,04,27,12,45,15.50
2009,04,27,12,46,15.40
2009,04,27,12,47,15.30
2009,04,27,12,48,15.40
2009,04,27,12,49,15.40
2009,04,27,12,50,15.30
2009,04,27,12,51,15.30
2009,04,27,12,52,15.30
2009,04,27,12,53,15.40
2009,04,27,12,54,15.50
2009,04,27,12,55,15.50
2009,04,27,12,56,15.40
2009,04,27,12,57,15.40
2009,04,27,12,58,15.40
2009,04,27,12,59,15.30
2009,04,27,13,00,15.30
2009,04,27,13,01,15.30
2009,04,27,13,02,15.40
2009,04,27,13,03,15.40
2009,04,27,13,04,15.30
2009,04,27,13,05,15.30
2009,04,27,13,06,15.30
2009,04,27,13,07,15.40
2009,04,27,13,08,15.60
2009,04,27,13,09,15.80
2009,04,27,13,10,15.80
2009,04,27,13,11,15.80
2009,04,27,13,12,15.80
2009,04,27,13,13,15.80
2009,04,27,13,14,15.90
2009,04,27,13,15,15.90
2009,04,27,13,16,15.90
2009,04,27,13,17,15.90
2009,04,27,13,18,15.90
2009,04,27,13,19,15.80
2009,04,27,13,20,15.80
2009,04,27,13,21,15.70
2009,04,27,13,22,15.70
2009,04,27,13,23,15.70
2009,04,27,13,24,15.80
2009,04,27,13,25,15.80
2009,04,27,13,26,15.80
2009,04,27,13,27,15.70
2009,04,27,13,28,15.70
2009,04,27,13,29,15.60
2009,04,27,13,30,15.60
2009,04,27,13,31,15.50
2009,04,27,13,32,15.50
2009,04,27,13,33,15.50
2009,04,27,13,34,15.60
2009,04,27,13,35,15.60
2009,04,27,13,36,15.70
2009,04,27,13,37,15.60
2009,04,27,13,38,15.70
2009,04,27,13,39,15.80
2009,04,27,13,40,16.00
2009,04,27,13,41,16.00
2009,04,27,13,42,15.90
2009,04,27,13,43,15.90
2009,04,27,13,44,15.90
2009,04,27,13,45,15.90
2009,04,27,13,46,15.90
2009,04,27,13,47,15.90
2009,04,27,13,48,15.90
2009,04,27,13,49,15.90
2009,04,27,13,50,15.80
2009,04,27,13,51,15.80
2009,04,27,13,52,15.90
2009,04,27,13,53,16.10
2009,04,27,13,54,16.20
2009,04,27,13,55,16.20
2009,04,27,13,56,16.10
2009,04,27,13,57,16.10
2009,04,27,13,58,15.90
2009,04,27,13,59,15.80
2009,04,27,14,00,15.80
2009,04,27,14,01,15.90
2009,04,27,14,02,16.10
2009,04,27,14,03,16.10
2009,04,27,14,04,16.10
2009,04,27,14,05,16.00
2009,04,27,14,06,15.90
2009,04,27,14,07,16.00
2009,04,27,14,08,16.10
2009,04,27,14,09,16.20
2009,04,27,14,10,16.20
2009,04,27,14,11,16.20
2009,04,27,14,12,16.10
2009,04,27,14,13,16.10
2009,04,27,14,14,16.00
2009,04,27,14,15,15.90
2009,04,27,14,16,15.90
2009,04,27,14,17,15.90
2009,04,27,14,18,16.00
2009,04,27,14,19,16.10
2009,04,27,14,20,16.10
2009,04,27,14,21,16.10
2009,04,27,14,22,16.10
2009,04,27,14,23,16.10
2009,04,27,14,24,16.10
2009,04,27,14,25,16.10
2009,04,27,14,26,16.10
2009,04,27,14,27,16.10
2009,04,27,14,28,16.20
2009,04,27,14,29,16.30
2009,04,27,14,30,16.40
2009,04,27,14,31,16.40
2009,04,27,14,32,16.60
2009,04,27,14,33,16.70
2009,04,27,14,34,16.60
2009,04,27,14,35,16.60
2009,04,27,14,36,16.60
2009,04,27,14,37,16.60
2009,04,27,14,38,16.70
2009,04,27,14,39,16.70
2009,04,27,14,40,16.70
2009,04,27,14,41,16.80
2009,04,27,14,42,16.90
2009,04,27,14,43,17.10
2009,04,27,14,44,17.20
2009,04,27,14,45,17.10
2009,04,27,14,46,17.00
2009,04,27,14,47,16.80
2009,04,27,14,48,16.90
2009,04,27,14,49,17.00
2009,04,27,14,50,17.00
2009,04,27,14,51,17.00
2009,04,27,14,52,17.10
2009,04,27,14,53,17.00
2009,04,27,14,54,16.90
2009,04,27,14,55,16.80
2009,04,27,14,56,16.80
2009,04,27,14,57,16.90
2009,04,27,14,58,16.90
2009,04,27,14,59,16.90
2009,04,27,15,00,16.90
2009,04,27,15,01,16.90
2009,04,27,15,02,16.80
2009,04,27,15,03,16.90
2009,04,27,15,04,16.90
2009,04,27,15,05,16.80
2009,04,27,15,06,16.80
2009,04,27,15,07,16.80
2009,04,27,15,08,16.80
2009,04,27,15,09,16.70
2009,04,27,15,10,16.60
2009,04,27,15,11,16.60
2009,04,27,15,12,16.50
2009,04,27,15,13,16.40
2009,04,27,15,14,16.60
2009,04,27,15,15,16.70
2009,04,27,15,16,16.80
2009,04,27,15,17,16.80
2009,04,27,15,18,16.90
2009,04,27,15,19,16.70
2009,04,27,15,20,16.70
2009,04,27,15,21,16.60
2009,04,27,15,22,16.60
2009,04,27,15,23,16.60
2009,04,27,15,24,16.70
2009,04,27,15,25,16.70
2009,04,27,15,26,16.90
2009,04,27,15,27,16.90
2009,04,27,15,28,16.80
2009,04,27,15,29,16.70
2009,04,27,15,30,16.70
2009,04,27,15,31,16.70
2009,04,27,15,32,16.70
2009,04,27,15,33,16.70
2009,04,27,15,34,16.80
2009,04,27,15,35,16.90
2009,04,27,15,36,16.80
2009,04,27,15,37,16.90
2009,04,27,15,38,16.90
2009,04,27,15,39,16.80
2009,04,27,15,40,16.70
2009,04,27,15,41,16.70
2009,04,27,15,42,16.80
2009,04,27,15,43,16.90
2009,04,27,15,44,16.90
2009,04,27,15,45,17.00
2009,04,27,15,46,17.00
2009,04,27,15,47,17.10
2009,04,27,15,48,17.20
2009,04,27,15,49,17.20
2009,04,27,15,50,17.10
2009,04,27,15,51,17.00
2009,04,27,15,52,17.00
2009,04,27,15,53,16.90
2009,04,27,15,54,16.90
2009,04,27,15,55,17.00
2009,04,27,15,56,17.10
2009,04,27,15,57,17.10
2009,04,27,15,58,17.10
2009,04,27,15,59,17.20
2009,04,27,16,00,17.30
2009,04,27,16,01,17.30
2009,04,27,16,02,17.30
2009,04,27,16,03,17.10
2009,04,27,16,04,17.00
2009,04,27,16,05,16.90
2009,04,27,16,06,16.80
2009,04,27,16,07,16.80
2009,04,27,16,08,16.90
2009,04,27,16,09,17.00
2009,04,27,16,10,17.00
2009,04,27,16,11,17.00
2009,04,27,16,12,17.00
2009,04,27,16,13,17.00
2009,04,27,16,14,17.10
2009,04,27,16,15,17.10
2009,04,27,16,16,17.10
2009,04,27,16,17,17.00
2009,04,27,16,18,17.00
2009,04,27,16,19,17.00
2009,04,27,16,20,17.00
2009,04,27,16,21,16.90
2009,04,27,16,22,16.90
2009,04,27,16,23,16.80
2009,04,27,16,24,16.70
2009,04,27,16,25,16.70
2009,04,27,16,26,16.70
2009,04,27,16,27,16.80
2009,04,27,16,28,16.70
2009,04,27,16,29,16.70
2009,04,27,16,30,16.70
2009,04,27,16,31,16.80
2009,04,27,16,32,16.90
2009,04,27,16,33,16.90
2009,04,27,16,34,16.90
2009,04,27,16,35,16.80
2009,04,27,16,36,16.70
2009,04,27,16,37,16.70
2009,04,27,16,38,16.70
2009,04,27,16,39,16.80
2009,04,27,16,40,16.90
2009,04,27,16,41,16.90
2009,04,27,16,42,16.80
2009,04,27,16,43,16.70
2009,04,27,16,44,16.70
2009,04,27,16,45,16.70
2009,04,27,16,46,16.80
2009,04,27,16,47,16.90
2009,04,27,16,48,17.00
2009,04,27,16,49,16.90
2009,04,27,16,50,16.80
2009,04,27,16,51,16.70
2009,04,27,16,52,16.70
2009,04,27,16,53,16.70
2009,04,27,16,54,16.80
2009,04,27,16,55,16.90
2009,04,27,16,56,17.10
2009,04,27,16,57,17.20
2009,04,27,16,58,17.30
2009,04,27,16,59,17.40
2009,04,27,17,00,17.50
2009,04,27,17,01,17.60
2009,04,27,17,02,17.70
2009,04,27,17,03,17.70
2009,04,27,17,04,17.70
2009,04,27,17,05,17.70
2009,04,27,17,06,17.60
2009,04,27,17,07,17.40
2009,04,27,17,08,17.40
2009,04,27,17,09,17.30
2009,04,27,17,10,17.20
2009,04,27,17,11,17.20
2009,04,27,17,12,17.20
2009,04,27,17,13,17.20
2009,04,27,17,14,17.00
2009,04,27,17,15,16.90
2009,04,27,17,16,16.90
2009,04,27,17,17,16.80
2009,04,27,17,18,16.70
2009,04,27,17,19,16.70
2009,04,27,17,20,16.70
2009,04,27,17,21,16.70
2009,04,27,17,22,16.80
2009,04,27,17,23,16.90
2009,04,27,17,24,16.90
2009,04,27,17,25,16.90
2009,04,27,17,26,16.90
2009,04,27,17,27,16.90
2009,04,27,17,28,16.90
2009,04,27,17,29,16.90
2009,04,27,17,30,17.00
2009,04,27,17,31,17.10
2009,04,27,17,32,17.00
2009,04,27,17,33,16.90
2009,04,27,17,34,16.80
2009,04,27,17,35,16.80
2009,04,27,17,36,16.70
2009,04,27,17,37,16.60
2009,04,27,17,38,16.60
2009,04,27,17,39,16.60
2009,04,27,17,40,16.70